Location: Br�ttisellen
(47.4227°N, 8.6287°E)
Time: 18:12:53
(UTC+00:00)

Cosmos 2333 Rocket - Pass Details

Date: 09 April 2020
Orbit: 841 x 860 km, 70.8° (Epoch: 23 May)

Event Time Altitude Azimuth Distance (km) Brightness Sun altitude
Rises 23:35:40 0° 335° (NNW) 3,408 6.2 -34.5°
Reaches altitude 10° 23:38:12 10° 340° (NNW) 2,470 5.3 -34.5°
Enters shadow 23:42:29 43° 18° (NNE) 1,178 3.2 -34.4°
